QFA10 EGLL-YPLM

Flight info

Callsign QFA10
Flight time N/A
Altitude 35000
Route BPK Q295 BRAIN M197 REDFA L620 BIRKA Z21 GALMA DCT KOBUS L986 LASIS/N0492F370 L986 LUXAR L984 DIBED/K0902F370 L984 NIROV M991 OLGIN B494 STW A837 MOTEG/N0495F370 N23 ERLEV/N0493F390 N23 ULDUS N319 ZDN L125 KEBUD G208 PG G210 KC A791 TELEM Z10 LAXOM W74 HSR W144 IPNIB R458 BBB/N0487F410 Q13 BEKUT Q9 EPKOS W128 BBM R458 GUNIM R461 MDI M641 KAT N640 TARAK
Aircraft A359/H-SDE2E3GHIJ3J4J5LM1ORWXY/LB1D1

Departure

Time 2026-05-08 06:55
Airport London Heathrow Airport (EGLL)

Arrival

Time N/A
Airport Learmonth Airport (YPLM)
Time Latitude Longitude Altitude Speed Heading
2026-05-08 06:08 51.47397 -0.46237 93 ft 0 kts 236°
2026-05-08 06:09 51.47396 -0.46239 93 ft 0 kts 236°
2026-05-08 06:09 51.47395 -0.46242 93 ft 0 kts 236°
2026-05-08 06:10 51.47394 -0.46245 94 ft 0 kts 236°
2026-05-08 06:42 51.47399 -0.46234 96 ft 4 kts 238°
2026-05-08 06:42 51.47411 -0.46197 93 ft 4 kts 254°
2026-05-08 06:42 51.47415 -0.46158 94 ft 4 kts 276°
2026-05-08 06:43 51.47409 -0.46123 95 ft 4 kts 308°
2026-05-08 06:43 51.47398 -0.46104 94 ft 0 kts 326°
2026-05-08 06:45 51.47399 -0.46104 94 ft 1 kts 326°
2026-05-08 06:45 51.47442 -0.46151 94 ft 9 kts 326°
2026-05-08 06:46 51.47499 -0.46215 95 ft 10 kts 319°
2026-05-08 06:46 51.47516 -0.46319 94 ft 10 kts 270°
2026-05-08 06:46 51.47516 -0.46436 93 ft 11 kts 270°
2026-05-08 06:46 51.47515 -0.46564 93 ft 12 kts 270°
2026-05-08 06:47 51.47511 -0.46701 94 ft 13 kts 260°
2026-05-08 06:47 51.47494 -0.46840 95 ft 13 kts 265°
2026-05-08 06:47 51.47491 -0.46990 93 ft 14 kts 269°
2026-05-08 06:47 51.47490 -0.47147 93 ft 14 kts 269°
2026-05-08 06:48 51.47489 -0.47309 95 ft 15 kts 270°
2026-05-08 06:48 51.47489 -0.47479 95 ft 16 kts 270°
2026-05-08 06:48 51.47489 -0.47656 95 ft 16 kts 270°
2026-05-08 06:48 51.47488 -0.47840 95 ft 17 kts 270°
2026-05-08 06:49 51.47488 -0.48029 95 ft 17 kts 270°
2026-05-08 06:49 51.47487 -0.48222 95 ft 18 kts 270°
2026-05-08 06:49 51.47487 -0.48422 95 ft 18 kts 270°
2026-05-08 06:49 51.47486 -0.48623 95 ft 18 kts 270°
2026-05-08 06:50 51.47486 -0.48783 95 ft 12 kts 270°
2026-05-08 06:50 51.47497 -0.48913 95 ft 12 kts 296°
2026-05-08 06:50 51.47564 -0.48990 96 ft 12 kts 334°
2026-05-08 06:50 51.47613 -0.49027 95 ft 0 kts 337°
2026-05-08 06:53 51.47642 -0.49042 94 ft 7 kts 346°
2026-05-08 06:53 51.47696 -0.49046 96 ft 8 kts
2026-05-08 06:54 51.47740 -0.48993 94 ft 8 kts 60°
2026-05-08 06:54 51.47749 -0.48908 93 ft 8 kts 90°
2026-05-08 06:54 51.47749 -0.48887 93 ft 5 kts 89°
2026-05-08 06:54 51.47750 -0.48500 96 ft 66 kts 89°
2026-05-08 06:55 51.47756 -0.47436 94 ft 123 kts 89°
2026-05-08 06:55 51.47766 -0.45801 95 ft 171 kts 90°
2026-05-08 06:55 51.47753 -0.43828 601 ft 178 kts 90°
2026-05-08 06:55 51.47756 -0.41774 1051 ft 191 kts 91°
2026-05-08 06:56 51.47810 -0.39631 1515 ft 204 kts 81°
2026-05-08 06:56 51.48509 -0.37640 1828 ft 222 kts 48°
2026-05-08 06:56 51.49877 -0.36146 1824 ft 251 kts 34°
2026-05-08 06:56 51.51176 -0.34227 1889 ft 256 kts 56°
2026-05-08 06:57 51.52052 -0.31706 2190 ft 259 kts 72°
2026-05-08 06:57 51.52549 -0.28950 2865 ft 256 kts 82°
2026-05-08 06:57 51.52888 -0.26132 3515 ft 259 kts 81°
2026-05-08 06:57 51.53229 -0.24279 3903 ft 262 kts 71°
2026-05-08 06:58 51.54651 -0.21099 4730 ft 268 kts 40°
2026-05-08 06:58 51.55694 -0.20042 5146 ft 270 kts 26°
2026-05-08 06:58 51.57436 -0.18871 5735 ft 272 kts 22°
2026-05-08 06:58 51.59218 -0.17815 6003 ft 275 kts 18°
2026-05-08 06:59 51.61007 -0.16990 6032 ft 275 kts 16°
2026-05-08 06:59 51.62859 -0.16179 6028 ft 275 kts 16°
2026-05-08 06:59 51.64708 -0.15353 6029 ft 276 kts 17°
2026-05-08 06:59 51.66556 -0.14520 6074 ft 275 kts 17°
2026-05-08 07:00 51.68385 -0.13689 6332 ft 277 kts 17°
2026-05-08 07:00 51.70242 -0.12833 6865 ft 278 kts 17°
2026-05-08 07:00 51.72037 -0.11994 7459 ft 280 kts 16°
2026-05-08 07:00 51.73804 -0.10690 8017 ft 283 kts 37°
2026-05-08 07:01 51.75042 -0.08232 8599 ft 286 kts 67°
2026-05-08 07:01 51.75622 -0.05160 9161 ft 290 kts 78°
2026-05-08 07:01 51.75957 -0.01916 9697 ft 295 kts 83°
2026-05-08 07:01 51.76182 0.01409 10217 ft 300 kts 85°
2026-05-08 07:02 51.76385 0.04800 10512 ft 314 kts 85°
2026-05-08 07:02 51.76614 0.08383 10787 ft 327 kts 84°
2026-05-08 07:02 51.76876 0.12103 11082 ft 339 kts 83°
2026-05-08 07:02 51.76973 0.13387 11180 ft 343 kts 83°
2026-05-08 07:04 51.77104 0.15089 11305 ft 348 kts 83°
2026-05-08 07:04 51.77356 0.18257 11542 ft 357 kts 83°
2026-05-08 07:04 51.77688 0.22285 11825 ft 367 kts 83°
2026-05-08 07:05 51.78036 0.26446 12094 ft 378 kts 83°
2026-05-08 07:05 51.78393 0.30712 12329 ft 388 kts 83°
2026-05-08 07:05 51.78745 0.35060 12663 ft 394 kts 83°
2026-05-08 07:05 51.79098 0.39487 13103 ft 397 kts 83°
2026-05-08 07:06 51.79450 0.43935 13572 ft 400 kts 83°
2026-05-08 07:06 51.79798 0.48360 14013 ft 402 kts 83°
2026-05-08 07:06 51.80150 0.52840 14395 ft 405 kts 83°
2026-05-08 07:06 51.80505 0.57385 14782 ft 408 kts 84°
2026-05-08 07:07 51.80861 0.61939 15188 ft 410 kts 84°
2026-05-08 07:07 51.81371 0.66513 15583 ft 413 kts 79°
2026-05-08 07:07 51.82002 0.71053 15991 ft 415 kts 78°
2026-05-08 07:07 51.82687 0.75621 16398 ft 418 kts 77°
2026-05-08 07:08 51.83391 0.80174 16798 ft 420 kts 77°
2026-05-08 07:08 51.84126 0.84774 17194 ft 423 kts 76°
2026-05-08 07:08 51.84943 0.89369 17572 ft 426 kts 75°
2026-05-08 07:08 51.85809 0.93966 17954 ft 428 kts 74°
2026-05-08 07:09 51.86679 0.98540 18347 ft 431 kts 74°
2026-05-08 07:09 51.87557 1.03198 18697 ft 433 kts 74°
2026-05-08 07:09 51.88425 1.07875 19022 ft 435 kts 75°
2026-05-08 07:09 51.89288 1.12599 19372 ft 437 kts 75°
2026-05-08 07:10 51.90145 1.17339 19726 ft 439 kts 75°
2026-05-08 07:10 51.90999 1.22097 20065 ft 441 kts 75°
2026-05-08 07:10 51.91856 1.26893 20420 ft 443 kts 75°
2026-05-08 07:10 51.92716 1.31719 20774 ft 446 kts 75°
2026-05-08 07:11 51.93574 1.36546 21108 ft 448 kts 75°
2026-05-08 07:11 51.94439 1.41425 21458 ft 450 kts 75°
2026-05-08 07:11 51.95294 1.46252 21788 ft 452 kts 75°
2026-05-08 07:11 51.96163 1.51173 22159 ft 455 kts 75°
2026-05-08 07:12 51.97035 1.56126 22486 ft 457 kts 75°
2026-05-08 07:12 51.97908 1.61094 22827 ft 459 kts 75°
2026-05-08 07:12 51.98782 1.66081 23173 ft 461 kts 75°
2026-05-08 07:12 51.99658 1.71116 23519 ft 463 kts 75°
2026-05-08 07:13 52.00478 1.76135 23830 ft 465 kts 76°
2026-05-08 07:13 52.01266 1.81264 24122 ft 467 kts 77°
2026-05-08 07:13 52.02038 1.86395 24412 ft 469 kts 77°
2026-05-08 07:13 52.02814 1.91565 24685 ft 472 kts 77°
2026-05-08 07:14 52.03599 1.96762 24967 ft 474 kts 77°
2026-05-08 07:14 52.04390 2.01967 25259 ft 476 kts 77°
2026-05-08 07:14 52.05188 2.07197 25544 ft 478 kts 77°
2026-05-08 07:14 52.05990 2.12449 25835 ft 480 kts 77°
2026-05-08 07:15 52.06797 2.17742 26128 ft 482 kts 77°
2026-05-08 07:15 52.07590 2.22964 26430 ft 484 kts 77°
2026-05-08 07:15 52.08398 2.28296 26724 ft 486 kts 77°
2026-05-08 07:15 52.09204 2.33641 27013 ft 488 kts 77°
2026-05-08 07:16 52.10014 2.39027 27301 ft 491 kts 77°
2026-05-08 07:16 52.10825 2.44443 27581 ft 493 kts 77°
2026-05-08 07:16 52.11637 2.49879 27867 ft 495 kts 77°
2026-05-08 07:16 52.12539 2.55314 28138 ft 497 kts 74°
2026-05-08 07:17 52.13564 2.60710 28409 ft 499 kts 72°
2026-05-08 07:17 52.14628 2.66046 28673 ft 501 kts 72°
2026-05-08 07:17 52.15710 2.71452 28912 ft 503 kts 72°
2026-05-08 07:17 52.16784 2.76892 29155 ft 505 kts 73°
2026-05-08 07:18 52.17840 2.82350 29414 ft 507 kts 73°
2026-05-08 07:18 52.18886 2.87841 29779 ft 506 kts 73°
2026-05-08 07:18 52.19912 2.93293 30151 ft 505 kts 73°
2026-05-08 07:18 52.20934 2.98769 30451 ft 504 kts 73°
2026-05-08 07:19 52.21955 3.04260 30747 ft 504 kts 73°
2026-05-08 07:19 52.22968 3.09724 31047 ft 503 kts 73°
2026-05-08 07:19 52.23977 3.15181 31348 ft 502 kts 73°
2026-05-08 07:19 52.24987 3.20655 31635 ft 502 kts 74°
2026-05-08 07:20 52.25982 3.26059 31920 ft 501 kts 74°
2026-05-08 07:20 52.26986 3.31499 32195 ft 501 kts 74°
2026-05-08 07:20 52.27986 3.36954 32475 ft 500 kts 74°
2026-05-08 07:20 52.28983 3.42417 32759 ft 500 kts 74°
2026-05-08 07:21 52.29968 3.47834 33022 ft 499 kts 74°
2026-05-08 07:21 52.30958 3.53294 33288 ft 499 kts 74°
2026-05-08 07:21 52.31931 3.58671 33560 ft 499 kts 74°
2026-05-08 07:21 52.32924 3.64175 33838 ft 498 kts 74°
2026-05-08 07:22 52.33890 3.69541 34069 ft 498 kts 74°
2026-05-08 07:22 52.34865 3.74975 34301 ft 498 kts 74°
2026-05-08 07:22 52.35820 3.80422 34490 ft 498 kts 76°
2026-05-08 07:22 52.36461 3.85988 34650 ft 497 kts 85°
2026-05-08 07:23 52.36625 3.91635 34815 ft 496 kts 91°
2026-05-08 07:23 52.36584 3.97285 34992 ft 496 kts 93°
2026-05-08 07:23 52.36475 4.02935 35104 ft 497 kts 94°
2026-05-08 07:23 52.36332 4.08612 35136 ft 501 kts 94°
2026-05-08 07:24 52.36019 4.20045 35134 ft 504 kts 94°
2026-05-08 07:24 52.35722 4.31336 35135 ft 503 kts 94°
2026-05-08 07:25 52.35426 4.42795 35130 ft 503 kts 94°
2026-05-08 07:26 52.34970 4.59915 35130 ft 503 kts 94°
2026-05-08 07:26 52.34649 4.71377 35129 ft 504 kts 94°
2026-05-08 07:27 52.34307 4.82820 35129 ft 504 kts 94°
2026-05-08 07:27 52.33960 4.94117 35130 ft 504 kts 94°
2026-05-08 07:28 52.33522 5.05664 35129 ft 503 kts 99°
2026-05-08 07:28 52.31728 5.16677 35130 ft 500 kts 111°
2026-05-08 07:29 52.29256 5.27289 35142 ft 500 kts 113°
2026-05-08 07:29 52.26683 5.37867 35144 ft 500 kts 114°
2026-05-08 07:30 52.24133 5.48367 35145 ft 500 kts 113°
2026-05-08 07:30 52.21586 5.58893 35139 ft 500 kts 113°
2026-05-08 07:31 52.19019 5.69475 35129 ft 500 kts 113°
2026-05-08 07:31 52.16444 5.80037 35129 ft 500 kts 113°
2026-05-08 07:32 52.13874 5.90523 35131 ft 500 kts 114°
2026-05-08 07:32 52.11284 6.01058 35123 ft 500 kts 114°
2026-05-08 07:33 52.09252 6.11899 35135 ft 503 kts 103°
2026-05-08 07:33 52.07999 6.23037 35133 ft 504 kts 101°
2026-05-08 07:34 52.06846 6.34288 35135 ft 504 kts 101°
2026-05-08 07:34 52.05681 6.45560 35139 ft 504 kts 101°
2026-05-08 07:35 52.04497 6.56727 35137 ft 504 kts 101°
2026-05-08 07:35 52.04096 6.60467 35138 ft 504 kts 101°